Hyde Park, UT

10:41 PM MST on February 26, 2017 (GMT -0700)
Logan-Cache

Weather History for KLGU - February, 2013

Change the Weather History Date:

Friday, February 8, 2013

  Actual Average Record
Temperature  
Mean Temperature 14 °F -  
Max Temperature 26 °F 32 °F 61 °F (1963)
Min Temperature 3 °F 9 °F -24 °F (1989)
Degree Days  
Heating Degree Days 50    
Moisture  
Dew Point 15 °F    
Average Humidity 89    
Maximum Humidity 100    
Minimum Humidity 75    
Precipitation  
Precipitation 0.04 in - - ()
Sea Level Pressure  
Sea Level Pressure 29.82 in    
Wind  
Wind Speed 2 mph (NW)    
Max Wind Speed 10 mph    
Max Gust Speed -    
Visibility 2 miles    
Events Fog , Snow    
Averages and records for this station are not official NWS values.
T = Trace of Precipitation, MM = Missing Value Source: NWS Daily Summary

Daily Weather History Graph

Daily Weather History Graph

Search for Another Location

Airport or City:

Trip Planner

Search our weather history database for the weather conditions in past years. The results will help you decide how hot, cold, wet, or windy it might be!

Date:

Astronomy

Feb. 08, 2013 Rise Set
Actual Time 7:31 AM MST 5:52 PM MST
Civil Twilight 7:02 AM MST 6:21 PM MST
Nautical Twilight 6:29 AM MST 6:54 PM MST
Astronomical Twilight 5:57 AM MST 7:26 PM MST
Moon 6:03 AM MST (2/8) 4:29 PM MST (2/8)
Length of Visible Light 11h 18m
Length of Day
10h 20m
Waning Crescent, 3% of the Moon is Illuminated
Feb 8
Waning Crescent
Feb 10
New
Feb 17
First Quarter
Feb 25
Full
Mar 4
Last Quarter

Hourly Weather History & Observations

Time (MST) Temp. Windchill Dew Point Humidity Pressure Visibility Wind Dir Wind Speed Gust Speed Precip Events Conditions
12:29 AM 6.8 °F -0.1 °F 3.2 °F 85% 29.89 in 2.5 mi NE 3.5 mph - N/A   Clear
12:34 AM 3.2 °F - 1.4 °F 92% 29.89 in 4.0 mi Calm Calm - N/A   Clear
12:51 AM 7.0 °F - 3.9 °F 87% 30.06 in 2.5 mi Calm Calm - N/A   Clear
1:03 AM 8.6 °F - 6.8 °F 92% 29.89 in 3.0 mi Calm Calm - N/A   Clear
1:51 AM 3.9 °F - 1.0 °F 88% 30.05 in 3.0 mi Calm Calm - N/A   Clear
2:51 AM 5.0 °F - 1.9 °F 87% 30.04 in 2.5 mi Calm Calm - N/A   Clear
3:05 AM 6.8 °F - 5.0 °F 92% 29.87 in 0.8 mi Calm Calm - N/A   Mist
3:51 AM 3.9 °F - 3.0 °F 96% 30.03 in 0.2 mi Calm Calm - N/A Fog Light Freezing Fog
4:29 AM 5.0 °F - 3.2 °F 92% 29.84 in 1.8 mi Calm Calm - N/A   Overcast
4:45 AM 5.0 °F - 1.4 °F 85% 29.84 in 0.8 mi Calm Calm - N/A   Mist
4:51 AM 5.0 °F - 3.0 °F 92% 30.01 in 0.8 mi Calm Calm - N/A   Mist
4:59 AM 6.8 °F - 3.2 °F 85% 29.84 in 1.5 mi Calm Calm - N/A   Mostly Cloudy
5:16 AM 3.2 °F - 1.4 °F 92% 29.83 in 0.2 mi Calm Calm - N/A Fog Light Freezing Fog
5:33 AM 3.2 °F - 1.4 °F 92% 29.83 in 0.2 mi Calm Calm - N/A Fog Light Freezing Fog
5:40 AM 3.2 °F - 1.4 °F 92% 29.83 in 0.2 mi Calm Calm - N/A Fog Light Freezing Fog
5:51 AM 3.0 °F - -0.0 °F 87% 30.01 in 0.2 mi Calm Calm - N/A Fog Light Freezing Fog
6:51 AM 6.1 °F - 3.0 °F 87% 30.00 in 0.2 mi Calm Calm - N/A Fog Light Freezing Fog
7:51 AM 6.1 °F - 3.0 °F 87% 30.00 in 0.2 mi Calm Calm - N/A Fog Light Freezing Fog
8:10 AM 8.6 °F -2.6 °F 5.0 °F 85% 29.80 in 0.2 mi ENE 6.9 mph - N/A Fog Light Freezing Fog
8:20 AM 8.6 °F - 6.8 °F 92% 29.80 in 2.0 mi Calm Calm - N/A   Overcast
8:51 AM 12.0 °F - 8.1 °F 84% 29.96 in 2.5 mi Calm Calm - N/A   Overcast
9:51 AM 14.0 °F 5.1 °F 10.0 °F 84% 29.94 in 2.5 mi North 5.8 mph - 0.00 in   Overcast
10:51 AM 16.0 °F - 15.1 °F 96% 29.94 in 2.5 mi Calm Calm - N/A   Overcast
11:19 AM 17.6 °F 12.3 °F 14.0 °F 86% 29.76 in 3.0 mi North 3.5 mph - N/A   Mostly Cloudy
11:24 AM 17.6 °F 8.2 °F 14.0 °F 86% 29.76 in 2.5 mi North 6.9 mph - N/A   Overcast
11:41 AM 19.4 °F 12.8 °F 15.8 °F 86% 29.75 in 3.0 mi NW 4.6 mph - N/A   Overcast
11:51 AM 18.0 °F 7.7 °F 15.1 °F 88% 29.91 in 2.5 mi WSW 8.1 mph - N/A   Overcast
12:19 PM 17.6 °F 10.7 °F 15.8 °F 93% 29.74 in 3.0 mi SW 4.6 mph - N/A   Scattered Clouds
12:51 PM 19.0 °F 11.1 °F 15.1 °F 85% 29.88 in 3.0 mi South 5.8 mph - N/A   Clear
1:51 PM 21.9 °F 14.5 °F 16.0 °F 78% 29.86 in 4.0 mi South 5.8 mph - N/A   Haze
2:51 PM 23.0 °F 17.0 °F 18.0 °F 81% 29.81 in 5.0 mi West 4.6 mph - N/A   Haze
3:51 PM 24.1 °F - 17.1 °F 75% 29.81 in 5.0 mi Calm Calm - N/A   Haze
4:51 PM 24.1 °F - 17.1 °F 75% 29.82 in 6.0 mi Calm Calm - N/A   Haze
5:51 PM 25.0 °F 20.7 °F 18.0 °F 75% 29.84 in 6.0 mi ESE 3.5 mph - N/A   Haze
6:35 PM 23.0 °F - 19.4 °F 86% 29.70 in 2.5 mi Calm Calm - 0.00 in Snow Light Snow
6:42 PM 24.8 °F - 19.4 °F 80% 29.70 in 1.2 mi Calm Calm - 0.00 in Snow Light Snow
6:51 PM 24.1 °F - 19.9 °F 84% 29.84 in 0.8 mi Calm Calm - 0.01 in Snow Light Snow
7:05 PM 24.8 °F - 21.2 °F 86% 29.70 in 0.8 mi Calm Calm - 0.01 in Snow Light Snow
7:22 PM 24.8 °F 16.9 °F 23.0 °F 93% 29.69 in 0.8 mi NNE 6.9 mph - 0.02 in Snow Light Snow
7:27 PM 24.8 °F 16.9 °F 23.0 °F 93% 29.69 in 1.2 mi NNE 6.9 mph - 0.02 in Snow Light Snow
7:32 PM 26.6 °F 21.2 °F 24.8 °F 93% 29.69 in 2.0 mi NNE 4.6 mph - 0.02 in Snow Light Snow
7:48 PM 24.8 °F 19.1 °F 23.0 °F 93% 29.69 in 3.0 mi WNW 4.6 mph - 0.02 in   Overcast
7:51 PM 25.0 °F 17.1 °F 23.0 °F 92% 29.83 in 3.0 mi West 6.9 mph - 0.02 in   Overcast
7:57 PM 24.8 °F 17.9 °F 24.8 °F 100% 29.69 in 2.5 mi West 5.8 mph - N/A   Overcast
8:12 PM 26.6 °F 22.6 °F 24.8 °F 93% 29.70 in 3.0 mi WNW 3.5 mph - N/A   Overcast
8:20 PM 26.6 °F - 24.8 °F 93% 29.70 in 3.0 mi Calm Calm - N/A   Overcast
8:27 PM 26.6 °F 19.1 °F 24.8 °F 93% 29.70 in 2.5 mi NW 6.9 mph - 0.00 in Snow Light Snow
8:38 PM 26.6 °F 16.8 °F 24.8 °F 93% 29.69 in 1.8 mi NNW 10.4 mph - 0.00 in Snow Light Snow
8:51 PM 25.0 °F 15.5 °F 24.1 °F 96% 29.81 in 2.0 mi NNW 9.2 mph - 0.00 in Snow Light Snow
9:08 PM 26.6 °F 22.6 °F 24.8 °F 93% 29.69 in 3.0 mi North 3.5 mph - 0.00 in   Overcast
9:17 PM 26.6 °F - 24.8 °F 93% 29.70 in 3.0 mi Calm Calm - 0.00 in   Overcast
9:32 PM 26.6 °F 20.0 °F 24.8 °F 93% 29.69 in 3.0 mi SW 5.8 mph - 0.00 in   Overcast
9:45 PM 26.6 °F 20.0 °F 24.8 °F 93% 29.69 in 2.5 mi West 5.8 mph - 0.00 in Snow Light Snow
9:51 PM 26.1 °F 20.5 °F 24.1 °F 92% 29.80 in 2.0 mi NW 4.6 mph - 0.00 in Snow Light Snow
10:14 PM 26.6 °F 18.2 °F 24.8 °F 93% 29.70 in 3.0 mi SSW 8.1 mph - 0.00 in   Overcast
10:51 PM 26.1 °F 20.5 °F 25.0 °F 96% 29.80 in 3.0 mi North 4.6 mph - 0.00 in   Overcast
11:32 PM 26.6 °F 21.2 °F 24.8 °F 93% 29.69 in 1.5 mi South 4.6 mph - 0.00 in Snow Light Snow
11:51 PM 26.1 °F 20.5 °F 25.0 °F 96% 29.78 in 1.0 mi SSE 4.6 mph - 0.01 in Snow Light Snow
11:56 PM 26.6 °F 21.2 °F 24.8 °F 93% 29.69 in 1.0 mi SSE 4.6 mph - 0.00 in Snow Light Snow